CW7911 Weather Reports


Display with metric or nautical units.
time (UTC)temp
F
wind
direction
speed
MPH
gust
MPH
rain 1hr
in
rain 24hr
in
rain mn
in
humidity
%
barometer
mb
20260905035854 60 295 0.0 0.0 0.00 0.00 0.00 92 1019.2
20260905035350 60 295 0.0 0.0 0.00 0.00 0.00 93 1019.5
20260905034846 60 295 0.0 0.0 0.00 0.00 0.00 92 1019.5
20260905034342 60 295 0.0 0.0 0.00 0.00 0.00 92 1019.4
20260905033840 60 295 0.0 0.0 0.00 0.00 0.00 92 1019.4
20260905033336 60 295 0.0 0.0 0.00 0.00 0.00 92 1019.4
20260905032835 60 295 0.0 0.0 0.00 0.00 0.00 92 1019.4
20260905032331 60 295 0.0 0.0 0.00 0.00 0.00 92 1019.3
20260905031826 60 295 0.0 0.0 0.00 0.00 0.00 91 1019.5
20260905031321 60 295 0.0 0.0 0.00 0.00 0.00 91 1019.6
20260905030816 60 295 0.0 0.0 0.00 0.00 0.00 91 1019.6
20260905030312 60 295 0.0 0.0 0.00 0.00 0.00 90 1019.5
20260905025811 60 295 0.0 0.0 0.00 0.00 0.00 90 1019.6
20260905025306 61 295 0.0 0.0 0.00 0.00 0.00 90 1019.6
20260905024803 61 295 0.0 0.0 0.00 0.00 0.00 89 1019.6
20260905024258 61 295 0.0 0.0 0.00 0.00 0.00 89 1019.4
20260905023752 61 295 0.0 0.0 0.00 0.00 0.00 89 1019.7
20260905023242 61 295 0.0 0.0 0.00 0.00 0.00 89 1019.5
20260905022741 62 295 0.0 0.0 0.00 0.00 0.00 88 1019.6
20260905022237 62 295 0.0 0.0 0.00 0.00 0.00 88 1019.6
20260905021731 62 295 0.0 0.0 0.00 0.00 0.00 88 1019.7
20260905021226 62 295 0.0 0.0 0.00 0.00 0.00 88 1019.9
20260905020721 62 295 0.0 0.0 0.00 0.00 0.00 88 1019.7
20260905020216 62 295 0.0 0.0 0.00 0.00 0.00 88 1020.0
20260905015714 62 295 0.0 0.0 0.00 0.00 0.00 88 1019.9
20260905015209 63 295 0.0 0.0 0.00 0.00 0.00 87 1020.1
20260905014707 63 295 0.0 0.0 0.00 0.00 0.00 87 1019.8
20260905014203 63 295 0.0 0.0 0.00 0.00 0.00 87 1019.6
20260905013659 63 295 0.0 0.0 0.00 0.00 0.00 86 1019.9
20260905013155 64 295 0.0 0.0 0.00 0.00 0.00 86 1019.9
20260905012650 64 295 0.0 0.0 0.00 0.00 0.00 85 1019.9
20260905012146 64 295 0.0 0.0 0.00 0.00 0.00 85 1019.9
20260905011643 64 295 0.0 0.0 0.00 0.00 0.00 85 1019.8
20260905011138 64 295 0.0 0.0 0.00 0.00 0.00 85 1019.9
20260905010632 64 295 0.0 0.0 0.00 0.00 0.00 85 1020.0
20260905010128 64 295 0.0 0.0 0.00 0.00 0.00 86 1019.9
20260905005624 65 295 0.0 0.0 0.00 0.00 0.00 86 1019.9
20260905005119 65 295 0.0 0.0 0.00 0.00 0.00 85 1019.8
20260905004614 65 295 0.0 0.0 0.00 0.00 0.00 84 1019.5
20260905004109 65 295 0.0 0.0 0.00 0.00 0.00 84 1019.7
20260905003604 65 295 0.0 0.0 0.00 0.00 0.00 84 1019.7
20260905003100 65 295 0.0 0.0 0.00 0.00 0.00 84 1020.0
20260905002555 65 295 0.0 0.0 0.00 0.00 0.00 83 1019.6
20260905002050 65 295 0.0 0.0 0.00 0.00 0.00 83 1019.9
20260905001545 65 295 0.0 0.0 0.00 0.00 0.00 83 1019.8
20260905001045 66 295 0.0 0.0 0.00 0.00 0.00 85 1019.7
20260905000540 66 295 0.0 0.0 0.00 0.00 0.00 85 1019.6
20260905000036 66 295 0.0 0.0 0.00 0.00 0.00 83 1019.6
20260904235531 66 295 0.0 0.0 0.00 0.00 0.00 81 1019.7
20260904235031 66 295 0.0 0.0 0.00 0.00 0.00 80 1019.6
20260904234530 67 295 0.0 0.0 0.00 0.00 0.00 80 1019.6
20260904234027 67 295 0.0 0.0 0.00 0.00 0.00 79 1019.6
20260904233521 67 295 0.0 0.0 0.00 0.00 0.00 79 1019.3
20260904233018 67 295 0.0 0.0 0.00 0.00 0.00 79 1019.5
20260904232514 67 295 0.0 0.0 0.00 0.00 0.00 79 1019.4
20260904232010 68 295 0.0 0.0 0.00 0.00 0.00 79 1019.4
20260904231506 68 295 0.0 0.0 0.00 0.00 0.00 78 1019.2
20260904231001 68 295 0.0 0.0 0.00 0.00 0.00 78 1019.3
20260904230459 69 295 0.0 0.0 0.00 0.00 0.00 78 1019.4
20260904225955 69 295 0.0 0.0 0.00 0.00 0.00 80 1019.3
20260904225452 69 295 0.0 0.0 0.00 0.00 0.00 77 1019.3
20260904224946 69 295 0.0 0.0 0.00 0.00 0.00 77 1019.2
20260904224443 70 295 1.0 2.0 0.00 0.00 0.00 76 1019.4
20260904223942 70 295 0.0 3.0 0.00 0.00 0.00 75 1019.0
20260904223441 70 295 0.0 0.0 0.00 0.00 0.00 74 1019.1
20260904222937 70 295 0.0 0.0 0.00 0.00 0.00 74 1019.0
20260904222433 71 295 0.0 0.0 0.00 0.00 0.00 73 1019.2
20260904221932 71 295 0.0 0.0 0.00 0.00 0.00 71 1019.0
20260904221427 71 295 0.0 0.0 0.00 0.00 0.00 69 1019.3
20260904220923 71 295 0.0 0.0 0.00 0.00 0.00 68 1018.9
20260904220422 72 295 0.0 2.0 0.00 0.00 0.00 66 1019.3
20260904215917 72 295 0.0 0.0 0.00 0.00 0.00 65 1019.2
20260904215412 72 295 0.0 2.0 0.00 0.00 0.00 66 1019.2
20260904214908 72 295 1.0 3.0 0.00 0.00 0.00 63 1019.2
20260904214404 72 295 0.0 0.0 0.00 0.00 0.00 71 1019.3
20260904213902 72 295 0.0 0.0 0.00 0.00 0.00 64 1019.1
20260904213357 73 295 0.0 0.0 0.00 0.00 0.00 66 1019.0
20260904212853 73 295 0.0 1.0 0.00 0.00 0.00 63 1018.7
20260904212352 73 295 0.0 0.0 0.00 0.00 0.00 66 1019.1
20260904211848 73 295 0.0 0.0 0.00 0.00 0.00 65 1019.2
20260904211343 73 295 0.0 0.0 0.00 0.00 0.00 64 1019.1
20260904210838 73 295 0.0 1.0 0.00 0.00 0.00 68 1019.3
20260904210332 74 295 0.0 1.0 0.00 0.00 0.00 66 1019.1
20260904205829 74 295 0.0 0.0 0.00 0.00 0.00 66 1019.3
20260904205324 75 295 0.0 1.0 0.00 0.00 0.00 62 1018.9
20260904204821 74 295 1.0 2.0 0.00 0.00 0.00 59 1018.9
20260904204316 75 295 0.0 0.0 0.00 0.00 0.00 65 1019.1
20260904203812 75 295 0.0 1.0 0.00 0.00 0.00 59 1018.9
20260904203308 76 295 1.0 1.0 0.00 0.00 0.00 62 1018.9
20260904202804 76 295 2.0 3.0 0.00 0.00 0.00 59 1019.1
20260904202300 77 295 0.0 1.0 0.00 0.00 0.00 61 1018.8
20260904201756 77 295 0.0 2.0 0.00 0.00 0.00 57 1019.0
20260904201255 77 295 0.0 2.0 0.00 0.00 0.00 59 1018.7
20260904200750 77 295 1.0 3.0 0.00 0.00 0.00 55 1018.6
20260904200244 77 295 0.0 2.0 0.00 0.00 0.00 56 1018.9
20260904195743 77 295 0.0 1.0 0.00 0.00 0.00 60 1019.0
20260904195242 76 295 0.0 1.0 0.00 0.00 0.00 59 1018.9
20260904194737 74 295 1.0 2.0 0.00 0.00 0.00 60 1019.0
20260904194236 73 295 0.0 0.0 0.00 0.00 0.00 66 1019.0
20260904193732 75 295 0.0 0.0 0.00 0.00 0.00 62 1018.7
20260904193228 75 250 0.0 0.0 0.00 0.00 0.00 65 1018.9
20260904192723 75 250 0.0 1.0 0.00 0.00 0.00 67 1018.8
20260904192218 73 250 0.0 0.0 0.00 0.00 0.00 73 1019.0
20260904191715 73 250 0.0 0.0 0.00 0.00 0.00 77 1019.0
20260904191211 73 250 0.0 0.0 0.00 0.00 0.00 77 1019.1
20260904190707 73 250 0.0 0.0 0.00 0.00 0.00 77 1019.0
20260904190203 73 250 0.0 0.0 0.00 0.00 0.00 75 1019.2
20260904185659 73 250 0.0 0.0 0.00 0.00 0.00 72 1019.4
20260904185153 73 250 0.0 0.0 0.00 0.00 0.00 72 1019.4
20260904184652 74 250 0.0 1.0 0.00 0.00 0.00 70 1019.3
20260904184148 75 150 0.0 0.0 0.00 0.00 0.00 69 1019.2
20260904183643 76 150 0.0 1.0 0.00 0.00 0.00 71 1019.1
20260904183137 75 150 0.0 0.0 0.00 0.00 0.00 73 1019.1
20260904182633 75 150 0.0 0.0 0.00 0.00 0.00 71 1019.0
20260904182128 76 150 0.0 0.0 0.00 0.00 0.00 73 1018.8
20260904181623 76 150 0.0 1.0 0.00 0.00 0.00 70 1019.1
20260904181118 75 150 0.0 0.0 0.00 0.00 0.00 71 1018.7
20260904180613 75 150 0.0 0.0 0.00 0.00 0.00 73 1019.2
20260904180108 75 150 0.0 3.0 0.00 0.00 0.00 67 1019.1
20260904175602 75 150 0.0 0.0 0.00 0.00 0.00 69 1019.2
20260904175100 74 150 0.0 3.0 0.00 0.00 0.00 71 1019.1
20260904174555 74 150 0.0 0.0 0.00 0.00 0.00 81 1019.0
20260904174052 74 150 0.0 1.0 0.00 0.00 0.00 80 1019.1
20260904173551 74 150 0.0 0.0 0.00 0.00 0.00 73 1019.1
20260904173047 74 150 0.0 0.0 0.00 0.00 0.00 76 1019.1
20260904172543 75 150 0.0 0.0 0.00 0.00 0.00 75 1019.3
20260904172042 75 150 0.0 0.0 0.00 0.00 0.00 79 1019.2
20260904171537 74 150 0.0 0.0 0.00 0.00 0.00 76 1019.2
20260904171033 74 150 0.0 0.0 0.00 0.00 0.00 76 1019.5
20260904170528 74 150 0.0 1.0 0.00 0.00 0.00 78 1019.6
20260904170025 72 150 0.0 0.0 0.00 0.00 0.00 81 1019.5
20260904165523 73 150 0.0 0.0 0.00 0.00 0.00 84 1019.6
20260904165023 74 150 0.0 0.0 0.00 0.00 0.00 79 1019.7
20260904164518 74 150 0.0 0.0 0.00 0.00 0.00 81 1019.7
20260904164014 73 150 0.0 0.0 0.00 0.00 0.00 82 1019.6
20260904163513 73 150 0.0 0.0 0.00 0.00 0.00 82 1019.6
20260904163008 73 150 0.0 0.0 0.00 0.00 0.00 81 1019.8
20260904162503 72 150 0.0 0.0 0.00 0.00 0.00 83 1019.8
20260904161958 72 150 0.0 0.0 0.00 0.00 0.00 82 1019.8
20260904161453 72 150 0.0 0.0 0.00 0.00 0.00 82 1019.9
20260904160949 73 150 0.0 0.0 0.00 0.00 0.00 82 1019.9
20260904160443 73 150 0.0 0.0 0.00 0.00 0.00 82 1019.8
20260904155938 73 150 0.0 0.0 0.00 0.00 0.00 79 1020.1
20260904155433 72 150 0.0 0.0 0.00 0.00 0.00 81 1020.0
20260904154932 71 150 0.0 0.0 0.00 0.00 0.00 82 1020.0
20260904154427 73 150 0.0 1.0 0.00 0.00 0.00 82 1020.1
20260904153922 74 150 0.0 1.0 0.00 0.00 0.00 79 1020.1
20260904153417 72 150 0.0 0.0 0.00 0.00 0.00 79 1020.3
20260904152913 73 150 0.0 0.0 0.00 0.00 0.00 78 1020.3
20260904152408 71 150 0.0 1.0 0.00 0.00 0.00 78 1020.4
20260904151907 72 150 0.0 1.0 0.00 0.00 0.00 79 1020.4
20260904151402 72 150 0.0 0.0 0.00 0.00 0.00 81 1020.3
20260904150858 69 150 0.0 1.0 0.00 0.00 0.00 82 1020.3
20260904150353 71 150 0.0 0.0 0.00 0.00 0.00 82 1020.5
20260904145850 69 150 0.0 0.0 0.00 0.00 0.00 84 1020.3
20260904145347 68 150 0.0 0.0 0.00 0.00 0.00 89 1020.5
20260904144842 66 150 0.0 0.0 0.00 0.00 0.00 90 1020.5
20260904144338 67 150 0.0 0.0 0.00 0.00 0.00 90 1020.6
20260904143833 65 150 0.0 0.0 0.00 0.00 0.00 92 1020.6
20260904143330 66 150 0.0 0.0 0.00 0.00 0.00 93 1020.8
20260904142826 66 150 0.0 0.0 0.00 0.00 0.00 94 1020.6
20260904142321 66 150 0.0 0.0 0.00 0.00 0.00 94 1020.6
20260904141816 63 150 0.0 0.0 0.00 0.00 0.00 94 1020.6
20260904141311 64 150 0.0 0.0 0.00 0.00 0.00 94 1020.8
20260904140808 64 150 0.0 0.0 0.00 0.00 0.00 94 1020.9
20260904140302 64 150 0.0 0.0 0.00 0.00 0.00 94 1020.7
20260904135801 64 150 0.0 0.0 0.00 0.00 0.00 94 1020.8
20260904135256 64 150 0.0 0.0 0.00 0.00 0.00 94 1020.7
20260904134752 64 150 0.0 0.0 0.00 0.00 0.00 94 1020.4
20260904134252 64 150 0.0 0.0 0.00 0.00 0.00 94 1020.7
20260904133747 64 150 0.0 0.0 0.00 0.00 0.00 94 1020.5
20260904133243 64 150 0.0 0.0 0.00 0.00 0.00 94 1020.6
20260904132742 64 150 0.0 0.0 0.00 0.00 0.00 94 1020.6
20260904132238 64 150 0.0 0.0 0.00 0.00 0.00 94 1020.6
20260904131736 64 150 0.0 0.0 0.00 0.00 0.00 94 1020.6
20260904131232 64 150 0.0 0.0 0.00 0.00 0.00 94 1020.7
20260904130727 63 150 0.0 0.0 0.00 0.00 0.00 94 1020.7
20260904130226 63 150 0.0 1.0 0.00 0.00 0.00 94 1020.8
20260904125722 62 150 0.0 1.0 0.00 0.00 0.00 94 1020.5
20260904125217 62 150 0.0 0.0 0.00 0.00 0.00 94 1020.7
20260904124712 62 150 0.0 0.0 0.00 0.00 0.00 94 1020.7
20260904124208 62 150 0.0 0.0 0.00 0.00 0.00 94 1020.8
20260904123702 62 150 0.0 1.0 0.00 0.00 0.00 94 1020.6
20260904123158 62 150 0.0 0.0 0.00 0.00 0.00 94 1020.8
20260904122653 61 150 0.0 0.0 0.00 0.00 0.00 94 1020.7
20260904122147 62 150 0.0 1.0 0.00 0.00 0.00 94 1020.8
20260904121642 62 150 0.0 0.0 0.00 0.00 0.00 94 1020.8
20260904121138 62 150 0.0 1.0 0.00 0.00 0.00 94 1020.6
20260904120635 62 150 0.0 0.0 0.00 0.00 0.00 94 1020.5
20260904120131 62 150 0.0 0.0 0.00 0.00 0.00 94 1020.7
20260904115631 61 150 0.0 0.0 0.00 0.00 0.00 94 1020.6
20260904115126 61 150 0.0 0.0 0.00 0.00 0.00 94 1020.6
20260904114620 61 150 0.0 0.0 0.00 0.00 0.00 94 1020.9
20260904114114 60 150 0.0 1.0 0.00 0.00 0.00 94 1020.7
20260904113609 61 150 0.0 0.0 0.00 0.00 0.00 94 1020.7
20260904113108 61 150 0.0 0.0 0.00 0.00 0.00 94 1020.6
20260904112603 61 150 0.0 0.0 0.00 0.00 0.00 94 1020.5
20260904112100 61 150 0.0 0.0 0.00 0.00 0.00 94 1020.7
20260904111554 61 150 0.0 0.0 0.00 0.00 0.00 94 1020.5
20260904111050 61 150 0.0 0.0 0.00 0.00 0.00 94 1020.8
20260904110544 60 150 0.0 0.0 0.00 0.00 0.00 94 1020.6
20260904110040 60 150 0.0 0.0 0.00 0.00 0.00 94 1020.4
20260904105539 60 150 0.0 0.0 0.00 0.00 0.00 94 1020.6
20260904105034 61 150 0.0 0.0 0.00 0.00 0.00 94 1020.4
20260904104530 61 150 0.0 0.0 0.00 0.00 0.00 94 1020.5
20260904104026 61 150 0.0 0.0 0.00 0.00 0.00 94 1020.4
20260904103521 61 150 0.0 0.0 0.00 0.00 0.00 94 1020.6
20260904103017 61 150 0.0 0.0 0.00 0.00 0.00 94 1020.6
20260904102513 61 150 0.0 0.0 0.00 0.00 0.00 94 1020.4
20260904102008 61 150 0.0 0.0 0.00 0.00 0.00 94 1020.3
20260904101505 61 150 0.0 0.0 0.00 0.00 0.00 94 1020.1
20260904101000 61 150 0.0 0.0 0.00 0.00 0.00 94 1020.2
20260904100456 61 150 0.0 0.0 0.00 0.00 0.00 94 1020.4
20260904095955 61 150 0.0 0.0 0.00 0.00 0.00 94 1020.3
20260904095450 61 150 0.0 0.0 0.00 0.00 0.00 94 1020.4
20260904094945 61 150 0.0 0.0 0.00 0.00 0.00 94 1020.3
20260904094440 61 150 0.0 0.0 0.00 0.00 0.00 94 1020.3
20260904093936 61 150 0.0 0.0 0.00 0.00 0.00 94 1020.5
20260904093432 62 150 0.0 0.0 0.00 0.00 0.00 94 1020.3
20260904092927 62 150 0.0 0.0 0.00 0.00 0.00 94 1020.1
20260904092424 62 150 0.0 0.0 0.00 0.00 0.00 94 1020.2
20260904091919 62 150 0.0 0.0 0.00 0.00 0.00 94 1020.5
20260904091414 62 150 0.0 0.0 0.00 0.00 0.00 94 1020.1
20260904090903 62 150 0.0 0.0 0.00 0.00 0.00 94 1020.1
20260904090359 62 150 0.0 0.0 0.00 0.00 0.00 94 1020.2
20260904085854 62 150 0.0 0.0 0.00 0.00 0.00 94 1020.0
20260904085350 62 150 0.0 0.0 0.00 0.00 0.00 94 1019.9
20260904084850 62 150 0.0 0.0 0.00 0.00 0.00 94 1020.2
20260904084346 62 150 0.0 0.0 0.00 0.00 0.00 94 1020.4
20260904083841 62 150 0.0 0.0 0.00 0.00 0.00 94 1020.2
20260904083338 62 150 0.0 0.0 0.00 0.00 0.00 94 1020.0
20260904082833 62 150 0.0 0.0 0.00 0.00 0.00 94 1020.3
20260904082327 62 150 0.0 0.0 0.00 0.00 0.00 94 1020.1
20260904081823 62 150 0.0 0.0 0.00 0.00 0.00 94 1020.4
20260904081318 62 150 0.0 0.0 0.00 0.00 0.00 94 1020.4
20260904080814 62 150 0.0 0.0 0.00 0.00 0.00 94 1020.4
20260904080309 62 150 0.0 0.0 0.00 0.00 0.00 94 1020.4
20260904075806 62 150 0.0 0.0 0.00 0.00 0.00 94 1020.5
20260904075300 62 150 0.0 0.0 0.00 0.00 0.00 94 1020.4
20260904074759 62 150 0.0 0.0 0.00 0.00 0.00 94 1020.4
20260904074254 62 150 0.0 2.0 0.00 0.00 0.00 94 1020.2
20260904073750 62 150 0.0 0.0 0.00 0.00 0.00 94 1020.5
20260904073245 61 150 0.0 0.0 0.00 0.00 0.00 94 1020.6
20260904072742 61 150 0.0 0.0 0.00 0.00 0.00 94 1020.6
20260904072235 61 150 0.0 0.0 0.00 0.00 0.00 94 1020.6
20260904071732 61 150 0.0 0.0 0.00 0.00 0.00 94 1020.7
20260904071231 61 150 0.0 0.0 0.00 0.00 0.00 94 1021.0
20260904070726 61 150 0.0 0.0 0.00 0.00 0.00 94 1020.7
20260904070225 61 150 0.0 0.0 0.00 0.00 0.00 94 1020.6
20260904065720 61 150 0.0 0.0 0.00 0.00 0.00 94 1020.6
20260904065217 61 150 0.0 0.0 0.00 0.00 0.00 94 1020.7
20260904064716 61 150 0.0 0.0 0.00 0.00 0.00 94 1020.8
20260904064212 61 150 0.0 0.0 0.00 0.00 0.00 94 1020.9
20260904063708 61 150 0.0 0.0 0.00 0.00 0.00 94 1021.0
20260904063203 61 150 0.0 0.0 0.00 0.00 0.00 94 1020.7
20260904062700 61 150 0.0 0.0 0.00 0.00 0.00 94 1020.9
20260904062155 61 150 0.0 0.0 0.00 0.00 0.00 94 1021.1
20260904061650 61 150 0.0 0.0 0.00 0.00 0.00 94 1021.2
20260904061147 60 150 0.0 0.0 0.00 0.00 0.00 94 1021.2
20260904060643 60 150 0.0 0.0 0.00 0.00 0.00 94 1021.2
20260904060138 60 150 0.0 0.0 0.00 0.00 0.00 94 1021.0
20260904055633 60 150 0.0 0.0 0.00 0.00 0.00 94 1021.3
20260904055128 60 150 0.0 0.0 0.00 0.00 0.00 94 1021.4
20260904054623 60 150 0.0 0.0 0.00 0.00 0.00 94 1021.4
20260904054120 60 150 0.0 0.0 0.00 0.00 0.00 94 1021.6
20260904053614 60 150 0.0 0.0 0.00 0.00 0.00 94 1021.5
20260904053109 60 150 0.0 0.0 0.00 0.00 0.00 94 1021.7
20260904052606 60 150 0.0 0.0 0.00 0.00 0.00 94 1021.8
20260904052101 60 150 0.0 0.0 0.00 0.00 0.00 94 1021.8
20260904051557 60 150 0.0 0.0 0.00 0.00 0.00 94 1021.9
20260904051056 60 150 0.0 0.0 0.00 0.00 0.00 94 1021.9
20260904050553 60 150 0.0 0.0 0.00 0.00 0.00 94 1021.9
20260904050049 60 150 0.0 0.0 0.00 0.00 0.00 94 1021.9
20260904045543 60 150 0.0 0.0 0.00 0.00 0.00 94 1022.1
20260904045038 60 150 0.0 0.0 0.00 0.00 0.00 94 1022.1
20260904044534 60 150 0.0 0.0 0.00 0.00 0.00 94 1022.2
20260904044030 60 150 0.0 0.0 0.00 0.00 0.00 94 1021.9
20260904043526 60 150 0.0 0.0 0.00 0.00 0.00 94 1021.9
20260904043022 60 150 0.0 0.0 0.00 0.00 0.00 94 1021.9
20260904042518 60 150 0.0 0.0 0.00 0.00 0.00 94 1021.9
20260904042013 60 150 0.0 0.0 0.00 0.00 0.00 94 1022.1
20260904041509 60 150 0.0 0.0 0.00 0.00 0.00 94 1022.3
20260904041004 60 150 0.0 0.0 0.00 0.00 0.00 94 1022.1
20260904040459 60 150 0.0 0.0 0.00 0.00 0.00 94 1022.3